Location: Joplin, MO
(37.0842°N, 94.5133°W)
Time: 10:59:27
(UTC+02:00)

Transit 2A - Pass Details

Date: 04 April 2023
Orbit: 591 x 964 km, 66.7° (Epoch: 03 June)

Event Time Altitude Azimuth Distance (km) Brightness Sun altitude
Exits shadow 12:52:36 - 298° (WNW) 2,673 8.4 -13.8°
Reaches altitude 10° 12:54:22 10° 314° (NW) 2,527 8.4 -13.5°
Maximum altitude 12:55:17 10° 323° (NW) 2,521 8.5 -13.3°
Drops below altitude 10° 12:56:13 10° 332° (NNW) 2,564 8.6 -13.2°
Sets 13:01:47 0° 12° (NNE) 3,596 9.9 -12.1°
